Location: Geroldsau
(48.7259°N, 8.2466°E)
Time: 11:35:25
(UTC+00:00)

Meteor 1-29 - Pass Details

Date: 20 June 2021
Orbit: 434 x 457 km, 97.7° (Epoch: 27 July)

Event Time Altitude Azimuth Distance (km) Brightness Sun altitude
Rises 01:18:34 0° 20° (NNE) 2,483 8.6 -13.8°
Reaches altitude 10° 01:20:45 10° 30° (NNE) 1,601 7.2 -13.6°
Maximum altitude 01:23:56 35° 98° (E) 745 4.1 -13.4°
Enters shadow 01:26:28 14° 162° (SSE) 1,348 4.9 -13.2°
